Location: Unspecified
(48.5539°N, 71.6350°W)
Time: 07:43:09
(UTC-04:00)

ISS - Pass Details

Date: 02 June 2019
Orbit: 408 x 418 km, 51.6° (Epoch: 17 June)

Event Time Altitude Azimuth Distance (km) Brightness Sun altitude
Rises 21:51:22 0° 288° (WNW) 2,356 1.2 -9.3°
Reaches altitude 10° 21:53:39 10° 276° (W) 1,492 -0.3 -9.6°
Maximum altitude 21:56:31 27° 217° (SW) 847 -2.3 -9.9°
Enters shadow 21:58:48 14° 164° (SSE) 1,294 -1.8 -10.1°
